Weather History for Oakes, ND

Change the Weather History Date:

Sunday, October 6, 2013

  Actual Average (KABR) Record (KABR)
Temperature  
Mean Temperature 50 °F 50 °F  
Max Temperature 62 °F 63 °F 91 °F (1961)
Min Temperature 37 °F 37 °F 19 °F (2012)
Degree Days  
Heating Degree Days 16 15  
Month to date heating degree days 86  
Since 1 July heating degree days 360  
Cooling Degree Days 0 0  
Month to date cooling degree days 0  
Year to date cooling degree days 523  
Moisture  
Dew Point 40 °F    
Average Humidity 78    
Maximum Humidity 100    
Minimum Humidity 42    
Precipitation  
Precipitation 0.15 in 0.07 in 1.25 in (1911)
Month to date precipitation 0.47  
Year to date precipitation 18.95  
Snow  
Snow 0.00 in - - ()
Month to date snowfall  
Since 1 July snowfall  
Snow Depth -    
Sea Level Pressure  
Sea Level Pressure 29.90 in    
Wind  
Wind Speed 15 mph (NW)    
Max Wind Speed 21 mph    
Max Gust Speed 28 mph    
Visibility 10 miles    
Events Rain    
T = Trace of Precipitation, MM = Missing Value Source: NWS Daily Summary

Daily Weather History Graph

Daily Weather History Graph

Search for Another Location

Airport:

Trip Planner

Search our weather history database for the weather conditions in past years. The results will help you decide how hot, cold, wet, or windy it might be!

Date:

Astronomy

Oct. 06, 2013 Rise Set
Actual Time 7:37 AM CDT 7:02 PM CDT
Civil Twilight 7:07 AM CDT 7:32 PM CDT
Nautical Twilight 6:33 AM CDT 8:06 PM CDT
Astronomical Twilight 5:57 AM CDT 8:41 PM CDT
Moon 9:31 AM CDT (10/6) 7:53 PM CDT (10/6)
Length of Visible Light 12h 24m
Length of Day
11h 24m
Waxing Crescent, 3% of the Moon is Illuminated
Oct 6
Waxing Crescent
Oct 11
First Quarter
Oct 18
Full
Oct 26
Last Quarter
Nov 3
New

Hourly Weather History & Observations

Time (CDT) Temp. Windchill Dew Point Humidity Pressure Visibility Wind Dir Wind Speed Gust Speed Precip Events Conditions
12:15 AM 42.8 °F 34.5 °F 42.8 °F 100% 29.87 in 5.0 mi NNW 18.4 mph 24.2 mph 0.04 in Rain Rain
12:35 AM 42.8 °F 35.1 °F 42.8 °F 100% 29.86 in 5.0 mi NNW 16.1 mph - 0.10 in Rain Light Rain
12:55 AM 42.8 °F 34.0 °F 42.8 °F 100% 29.87 in 10.0 mi NNW 20.7 mph 26.5 mph 0.11 in   Overcast
1:15 AM 42.8 °F 34.5 °F 42.8 °F 100% 29.87 in 10.0 mi NNW 18.4 mph - N/A Rain Light Rain
1:35 AM 41.0 °F 32.2 °F 41.0 °F 100% 29.86 in 10.0 mi NNW 18.4 mph 23.0 mph N/A Rain Light Rain
1:55 AM 41.0 °F 33.1 °F 41.0 °F 100% 29.87 in 10.0 mi North 15.0 mph 26.5 mph N/A Rain Light Rain
2:15 AM 41.0 °F 33.5 °F 41.0 °F 100% 29.87 in 7.0 mi North 13.8 mph 19.6 mph 0.01 in Rain Light Rain
2:35 AM 41.0 °F 33.1 °F 41.0 °F 100% 29.86 in 8.0 mi NNW 15.0 mph - 0.02 in Rain Light Rain
2:55 AM 42.8 °F 34.8 °F 42.8 °F 100% 29.86 in 10.0 mi NW 17.3 mph 23.0 mph 0.03 in Rain Light Rain
3:15 AM 42.8 °F 34.5 °F 42.8 °F 100% 29.86 in 10.0 mi NNW 18.4 mph 24.2 mph N/A   Overcast
3:35 AM 42.8 °F 34.8 °F 42.8 °F 100% 29.87 in 10.0 mi NNW 17.3 mph 25.3 mph N/A   Overcast
3:55 AM 42.8 °F 34.3 °F 42.8 °F 100% 29.87 in 10.0 mi NNW 19.6 mph 25.3 mph N/A   Overcast
4:15 AM 42.8 °F 35.4 °F 42.8 °F 100% 29.87 in 10.0 mi NNW 15.0 mph 20.7 mph N/A   Overcast
4:35 AM 41.0 °F 32.8 °F 41.0 °F 100% 29.87 in 7.0 mi NNW 16.1 mph 27.6 mph N/A Rain Light Rain
4:55 AM 41.0 °F 31.9 °F 41.0 °F 100% 29.87 in 5.0 mi NNW 19.6 mph 27.6 mph N/A Rain Light Rain
5:15 AM 41.0 °F 32.5 °F 41.0 °F 100% 29.88 in 5.0 mi NNW 17.3 mph 26.5 mph N/A   Overcast
5:35 AM 41.0 °F 32.5 °F 41.0 °F 100% 29.89 in 7.0 mi NNW 17.3 mph 25.3 mph 0.01 in Rain Light Rain
5:55 AM 41.0 °F 31.9 °F 41.0 °F 100% 29.90 in 10.0 mi North 19.6 mph 27.6 mph 0.01 in   Overcast
6:15 AM 41.0 °F 33.5 °F 41.0 °F 100% 29.90 in 10.0 mi NNW 13.8 mph - N/A   Overcast
6:35 AM 41.0 °F 33.5 °F 41.0 °F 100% 29.90 in 10.0 mi NNW 13.8 mph - N/A   Overcast
6:55 AM 41.0 °F 33.9 °F 41.0 °F 100% 29.91 in 10.0 mi NW 12.7 mph - N/A   Overcast
7:15 AM 39.2 °F 31.6 °F 39.2 °F 100% 29.91 in 10.0 mi NW 12.7 mph - N/A   Mostly Cloudy
7:35 AM 37.4 °F 28.9 °F 37.4 °F 100% 29.92 in 10.0 mi NW 13.8 mph - N/A   Partly Cloudy
7:55 AM 37.4 °F 29.3 °F 37.4 °F 100% 29.92 in 10.0 mi NW 12.7 mph - N/A   Partly Cloudy
8:15 AM 37.4 °F 29.8 °F 37.4 °F 100% 29.92 in 10.0 mi NW 11.5 mph - N/A   Partly Cloudy
8:35 AM 37.4 °F 28.5 °F 37.4 °F 100% 29.93 in 10.0 mi NW 15.0 mph 20.7 mph N/A   Clear
8:55 AM 37.4 °F 28.9 °F 37.4 °F 100% 29.93 in 10.0 mi NW 13.8 mph - N/A   Clear
9:15 AM 39.2 °F 30.5 °F 39.2 °F 100% 29.94 in 10.0 mi NNW 16.1 mph 23.0 mph N/A   Clear
9:35 AM 39.2 °F 31.2 °F 39.2 °F 100% 29.94 in 10.0 mi NNW 13.8 mph - N/A   Clear
9:55 AM 41.0 °F 31.9 °F 39.2 °F 93% 29.94 in 10.0 mi NW 19.6 mph - N/A   Clear
10:15 AM 41.0 °F 32.8 °F 37.4 °F 87% 29.94 in 10.0 mi NNW 16.1 mph 21.9 mph N/A   Clear
10:35 AM 42.8 °F 35.1 °F 37.4 °F 81% 29.94 in 10.0 mi NW 16.1 mph 20.7 mph N/A   Clear
10:55 AM 44.6 °F 36.6 °F 37.4 °F 76% 29.94 in 10.0 mi NW 19.6 mph 24.2 mph N/A   Clear
11:15 AM 46.4 °F 40.1 °F 37.4 °F 71% 29.95 in 10.0 mi NW 15.0 mph 23.0 mph N/A   Clear
11:35 AM 46.4 °F 39.8 °F 35.6 °F 66% 29.94 in 10.0 mi NNW 16.1 mph 23.0 mph N/A   Clear
11:55 AM 48.2 °F - 37.4 °F 66% 29.95 in 10.0 mi NW 18.4 mph - N/A   Clear
12:15 PM 48.2 °F - 37.4 °F 66% 29.95 in 10.0 mi NNW 19.6 mph 23.0 mph N/A   Clear
12:35 PM 50.0 °F - 37.4 °F 62% 29.94 in 10.0 mi NNW 16.1 mph 23.0 mph N/A   Clear
12:55 PM 51.8 °F - 37.4 °F 58% 29.94 in 10.0 mi NW 15.0 mph 19.6 mph N/A   Clear
1:15 PM 53.6 °F - 37.4 °F 54% 29.93 in 10.0 mi NW 16.1 mph - N/A   Clear
1:35 PM 55.4 °F - 37.4 °F 51% 29.92 in 10.0 mi NW 17.3 mph - N/A   Clear
1:55 PM 55.4 °F - 35.6 °F 47% 29.92 in 10.0 mi NW 13.8 mph - N/A   Clear
2:15 PM 57.2 °F - 37.4 °F 48% 29.91 in 10.0 mi NW 13.8 mph 19.6 mph N/A   Clear
2:35 PM 57.2 °F - 37.4 °F 48% 29.91 in 10.0 mi WNW 12.7 mph - N/A   Clear
2:55 PM 59.0 °F - 37.4 °F 45% 29.91 in 10.0 mi NW 11.5 mph 20.7 mph N/A   Clear
3:15 PM 59.0 °F - 37.4 °F 45% 29.90 in 10.0 mi NNW 16.1 mph - N/A   Clear
3:35 PM 59.0 °F - 37.4 °F 45% 29.90 in 10.0 mi NW 16.1 mph - N/A   Clear
3:55 PM 60.8 °F - 37.4 °F 42% 29.90 in 10.0 mi WNW 12.7 mph 19.6 mph N/A   Clear
4:15 PM 60.8 °F - 39.2 °F 45% 29.90 in 10.0 mi WNW 12.7 mph - N/A   Clear
4:35 PM 60.8 °F - 41.0 °F 48% 29.90 in 10.0 mi WNW 11.5 mph - N/A   Clear
4:55 PM 62.6 °F - 41.0 °F 45% 29.90 in 10.0 mi WNW 12.7 mph - N/A   Clear
5:15 PM 62.6 °F - 41.0 °F 45% 29.91 in 10.0 mi NW 10.4 mph - N/A   Clear
5:35 PM 60.8 °F - 41.0 °F 48% 29.91 in 10.0 mi WNW 8.1 mph - N/A   Clear
5:55 PM 60.8 °F - 44.6 °F 55% 29.91 in 10.0 mi West 6.9 mph - N/A   Clear
6:15 PM 59.0 °F - 44.6 °F 59% 29.91 in 10.0 mi West 6.9 mph - N/A   Clear
6:35 PM 59.0 °F - 44.6 °F 59% 29.91 in 10.0 mi West 6.9 mph - N/A   Clear
6:55 PM 55.4 °F - 42.8 °F 63% 29.91 in 10.0 mi WSW 6.9 mph - N/A   Clear
7:15 PM 55.4 °F - 42.8 °F 63% 29.91 in 10.0 mi SW 6.9 mph - N/A   Clear
7:35 PM 53.6 °F - 42.8 °F 67% 29.91 in 10.0 mi WSW 6.9 mph - N/A   Clear
7:55 PM 53.6 °F - 42.8 °F 67% 29.91 in 10.0 mi WSW 6.9 mph - N/A   Clear
8:15 PM 50.0 °F - 42.8 °F 76% 29.91 in 10.0 mi SW 6.9 mph - N/A   Clear
8:35 PM 48.2 °F - 41.0 °F 76% 29.91 in 10.0 mi SW 5.8 mph - N/A   Clear
8:55 PM 50.0 °F - 41.0 °F 71% 29.90 in 10.0 mi SW 8.1 mph - N/A   Clear
9:15 PM 48.2 °F - 41.0 °F 76% 29.90 in 10.0 mi WSW 6.9 mph - N/A   Clear
9:35 PM 50.0 °F - 41.0 °F 71% 29.90 in 10.0 mi SW 8.1 mph - N/A   Clear
9:55 PM 50.0 °F - 41.0 °F 71% 29.91 in 10.0 mi WSW 6.9 mph - N/A   Clear
10:15 PM 48.2 °F - 41.0 °F 76% 29.90 in 10.0 mi West 8.1 mph - N/A   Clear
10:35 PM 48.2 °F - 41.0 °F 76% 29.90 in 10.0 mi West 9.2 mph - N/A   Clear
10:55 PM 48.2 °F - 41.0 °F 76% 29.89 in 10.0 mi West 10.4 mph - N/A   Clear
11:15 PM 46.4 °F 41.5 °F 41.0 °F 81% 29.89 in 10.0 mi West 10.4 mph - N/A   Clear
11:35 PM 46.4 °F 41.1 °F 41.0 °F 81% 29.89 in 10.0 mi West 11.5 mph - N/A   Clear
11:55 PM 46.4 °F 41.9 °F 41.0 °F 81% 29.89 in 10.0 mi West 9.2 mph - N/A   Clear